Weather History for London City, United Kingdom

Change the Weather History Date:

Friday, January 10, 2014

  Actual Average Record
Temperature  
Mean Temperature 46 °F -  
Max Temperature 51 °F 45 °F 55 °F (2005)
Min Temperature 41 °F 39 °F 24 °F (2009)
Degree Days  
Heating Degree Days 19    
Moisture  
Dew Point 40 °F    
Average Humidity 80    
Maximum Humidity 87    
Minimum Humidity 67    
Precipitation  
Precipitation 0.00 in - - ()
Sea Level Pressure  
Sea Level Pressure 29.95 in    
Wind  
Wind Speed 9 mph ()    
Max Wind Speed 14 mph    
Max Gust Speed -    
Visibility 6.2 miles    
Events Rain    
Averages and records for this station are not official NWS values.
T = Trace of Precipitation, MM = Missing Value Source: Averaged Metar Reports

Daily Weather History Graph

Daily Weather History Graph

Search for Another Location

Airport:

Trip Planner

Search our weather history database for the weather conditions in past years. The results will help you decide how hot, cold, wet, or windy it might be!

Date:

Astronomy

Jan. 10, 2014 Rise Set
Actual Time 8:02 AM GMT 4:12 PM GMT
Civil Twilight 7:23 AM GMT 4:51 PM GMT
Nautical Twilight 6:40 AM GMT 5:33 PM GMT
Astronomical Twilight 6:00 AM GMT 6:14 PM GMT
Moon 12:18 PM GMT (1/10) 2:42 AM GMT (1/10)
Length of Visible Light 9h 28m
Length of Day
8h 10m
Waxing Gibbous, 73% of the Moon is Illuminated
Jan 10
Waxing Gibbous
Jan 16
Full
Jan 24
Last Quarter
Jan 30
New
Feb 6
First Quarter

Hourly Weather History & Observations

Time (GMT) Temp. Windchill Dew Point Humidity Pressure Visibility Wind Dir Wind Speed Gust Speed Precip Events Conditions
12:20 AM 42.8 °F 36.2 °F 37.4 °F 81% 29.92 in 6.2 mi WSW 12.7 mph - N/A   Unknown
12:50 AM 41.0 °F 33.9 °F 37.4 °F 87% 29.92 in 6.2 mi WSW 12.7 mph - N/A   Unknown
1:20 AM 42.8 °F 37.0 °F 37.4 °F 81% 29.95 in 6.2 mi WSW 10.4 mph - N/A   Partly Cloudy
1:50 AM 42.8 °F 37.0 °F 37.4 °F 81% 29.95 in 6.2 mi WSW 10.4 mph - N/A   Unknown
2:20 AM 41.0 °F 35.2 °F 37.4 °F 87% 29.95 in 6.2 mi WSW 9.2 mph - N/A   Unknown
2:50 AM 41.0 °F 35.8 °F 35.6 °F 81% 29.95 in 6.2 mi WSW 8.1 mph - N/A   Unknown
3:20 AM 41.0 °F 35.2 °F 37.4 °F 87% 29.95 in 6.2 mi WSW 9.2 mph - N/A   Unknown
3:50 AM 41.0 °F 34.7 °F 37.4 °F 87% 29.95 in 6.2 mi WSW 10.4 mph - N/A   Unknown
4:20 AM 41.0 °F 34.7 °F 37.4 °F 87% 29.95 in 6.2 mi WSW 10.4 mph - N/A   Unknown
4:50 AM 41.0 °F 34.7 °F 35.6 °F 81% 29.95 in 6.2 mi WSW 10.4 mph - N/A   Unknown
5:20 AM 41.0 °F 35.8 °F 35.6 °F 81% 29.95 in 6.2 mi West 8.1 mph - N/A   Unknown
5:50 AM 41.0 °F 35.8 °F 37.4 °F 87% 29.95 in 6.2 mi WSW 8.1 mph - N/A   Unknown
6:20 AM 41.0 °F 35.8 °F 35.6 °F 81% 29.95 in - WSW 8.1 mph - N/A   Clear
6:50 AM 41.0 °F 35.8 °F 37.4 °F 87% 29.95 in - WSW 8.1 mph - N/A   Clear
7:20 AM 41.0 °F 38.0 °F 35.6 °F 81% 29.98 in - SW 4.6 mph - N/A   Clear
7:50 AM 41.0 °F 37.1 °F 35.6 °F 81% 29.98 in - SW 5.8 mph - N/A   Clear
8:20 AM 41.0 °F 37.1 °F 35.6 °F 81% 29.98 in - SW 5.8 mph - N/A   Clear
8:50 AM 41.0 °F 37.1 °F 35.6 °F 81% 29.98 in - SW 5.8 mph - N/A   Clear
9:20 AM 42.8 °F 38.0 °F 37.4 °F 81% 29.98 in - SW 8.1 mph - N/A   Clear
9:50 AM 44.6 °F 40.2 °F 37.4 °F 76% 29.98 in - SW 8.1 mph - N/A   Clear
10:20 AM 46.4 °F 42.9 °F 39.2 °F 76% 29.98 in - WSW 6.9 mph - N/A   Clear
10:50 AM 48.2 °F - 39.2 °F 71% 29.98 in - SW 11.5 mph - N/A   Clear
11:20 AM 48.2 °F - 41.0 °F 76% 29.98 in - SW 12.7 mph - N/A   Clear
11:50 AM 48.2 °F - 41.0 °F 76% 29.95 in - SW 11.5 mph - N/A   Clear
12:20 PM 50.0 °F - 41.0 °F 71% 29.95 in 6.2 mi SW 12.7 mph - N/A   Partly Cloudy
12:50 PM 51.8 °F - 41.0 °F 67% 29.95 in 6.2 mi SW 11.5 mph - N/A   Partly Cloudy
1:20 PM 51.8 °F - 41.0 °F 67% 29.95 in 6.2 mi SW 13.8 mph - N/A   Partly Cloudy
1:50 PM 51.8 °F - 41.0 °F 67% 29.95 in 6.2 mi SSW 11.5 mph - N/A   Scattered Clouds
2:20 PM 50.0 °F - 41.0 °F 71% 29.92 in 6.2 mi SW 10.4 mph - N/A   Scattered Clouds
2:50 PM 51.8 °F - 41.0 °F 67% 29.92 in 6.2 mi SW 8.1 mph - N/A   Scattered Clouds
3:20 PM 50.0 °F - 41.0 °F 71% 29.95 in 6.2 mi SW 9.2 mph - N/A   Mostly Cloudy
3:50 PM 50.0 °F - 41.0 °F 71% 29.95 in 6.2 mi SW 6.9 mph - N/A   Mostly Cloudy
4:20 PM 50.0 °F - 42.8 °F 76% 29.95 in 6.2 mi SSW 8.1 mph - N/A   Scattered Clouds
4:50 PM 50.0 °F - 42.8 °F 76% 29.95 in 6.2 mi SSW 10.4 mph - N/A   Scattered Clouds
5:20 PM 50.0 °F - 42.8 °F 76% 29.95 in 6.2 mi SSW 9.2 mph - N/A   Scattered Clouds
5:50 PM 50.0 °F - 42.8 °F 76% 29.95 in 6.2 mi SSW 9.2 mph - N/A   Partly Cloudy
6:20 PM 48.2 °F - 42.8 °F 82% 29.95 in 6.2 mi SSW 11.5 mph - N/A   Partly Cloudy
6:50 PM 48.2 °F - 42.8 °F 82% 29.95 in - SW 10.4 mph - N/A   Clear
7:20 PM 48.2 °F - 42.8 °F 82% 29.95 in 6.2 mi SW 10.4 mph - N/A Rain Light Rain Showers
7:50 PM 48.2 °F - 42.8 °F 82% 29.95 in 6.2 mi SW 10.4 mph - N/A Rain Light Rain Showers
8:20 PM 48.2 °F - 42.8 °F 82% 29.95 in - SSW 9.2 mph - N/A   Clear
8:50 PM 48.2 °F - 42.8 °F 82% 29.92 in 6.2 mi SSW 9.2 mph - N/A   Partly Cloudy
9:20 PM 48.2 °F - 44.6 °F 87% 29.92 in 6.2 mi SSW 9.2 mph - N/A Rain Light Rain Showers
9:50 PM 48.2 °F - 44.6 °F 87% 29.92 in 6.2 mi SSW 11.5 mph - N/A Rain Light Rain
10:20 PM 48.2 °F - 44.6 °F 87% 29.92 in 6.2 mi SSW 10.4 mph - N/A Rain Rain
10:50 PM 48.2 °F - 44.6 °F 87% 29.92 in 6.2 mi SSW 11.5 mph - N/A Rain Light Rain
11:20 PM 48.2 °F - 42.8 °F 82% 29.92 in 6.2 mi SSW 9.2 mph - N/A Rain Light Rain
11:50 PM 48.2 °F - 42.8 °F 82% 29.92 in 6.2 mi SSW 9.2 mph - N/A Rain Light Rain